Regional Weather Roundup
Issued by NWS

Home | Current Version | Previous Version | Graphics & Text | Print | Product List | Glossary Off
Versions: 1 2 3 4 5 6 7 8 9 10 11 12 13 14 15 16 17 18 19 20 21 22 23 24 25 26 27 28 29 30 31 32 33 34 35 36 37 38 39 40 41 42 43 44 45 46 47 48 49 50

000
ASUS43 KDTX 052001
RWRMI
MICHIGAN HOURLY REGIONAL WEATHER ROUNDUP
NATIONAL WEATHER SERVICE DETROIT/PONTIAC MI
400 PM EDT THU MAY 05 2016

NOTE: "FAIR" INDICATES FEW OR NO CLOUDS BELOW 12,000 FEET WITH NO
SIGNIFICANT WEATHER AND/OR OBSTRUCTION TO VISIBILITY.

MIZ047>049-052>055-059>063-066>070-074>076-081>083-052100-
SOUTHEAST LOWER MICHIGAN

CITY           SKY/WX    TMP DP  RH WIND       PRES   REMARKS
ADRIAN         MOSUNNY   65  40  39 N22G29    29.86S
ALMA           PTSUNNY   65  42  44 NW8G22    29.91F
ANN ARBOR      PTSUNNY   63  40  42 N15       29.86S
BAD AXE        SUNNY     59  44  56 N12       29.92S
CARO           SUNNY     63  46  54 N9G21     29.90S
DETROIT CITY   MOSUNNY   66  36  32 N16G25    29.84F
DETROIT        PTSUNNY   65  38  36 N14G23    29.85S
FLINT          SUNNY     66  43  43 N17G24    29.90S
GROSSE ILE     PTSUNNY   64  39  39 NE13G18   29.83S
HILLSDALE      MOSUNNY   64  33  31 N14G22    29.88F
HOWELL         MOSUNNY   63  42  46 N14       29.89S

CITY           SKY/WX    TMP DP  RH WIND       PRES   REMARKS
JACKSON        PTSUNNY   65  39  38 N14G24    29.89S
LAMBERTVILLE   CLOUDY    65  36  34 N8G21     29.85S
LANSING        PTSUNNY   65  44  46 N10G17    29.91F
LAPEER         PTSUNNY   64  40  41 N12G22    29.88S
MASON          PTSUNNY   63  44  49 N9G18     29.90S
MONROE         PTSUNNY   64  43  45 NE10G30   29.84R
MT. CLEMENS    MOSUNNY   65  38  37 N21G26    29.84S
PONTIAC        PTSUNNY   62  42  47 N12       29.86S
PORT HOPE        N/A     48  43  82 N14       29.91F
PORT HURON     SUNNY     63  39  42 N17G23    29.86S
TRI CITIES     SUNNY     65  48  54 NE9       29.92S
MIDLAND        PTSUNNY   64  46  52 E3        29.90S
TROY           MOSUNNY   67  37  32 NE20G28   29.87S
SAGINAW HB     SUNNY     63  48  59 N10       29.91S
$$
MIZ043>046-050>051-056>058-064>065-071>073-077>080-052100-
SOUTHWEST LOWER MICHIGAN

CITY           SKY/WX    TMP DP  RH WIND       PRES   REMARKS
BATTLE CREEK   PTSUNNY   66  43  43 NE13      29.91S
BENTON HARBOR  MOSUNNY   47  41  80 NW12      29.99R
BIG RAPIDS     PTSUNNY   63  39  41 N8        29.92F
COLDWATER      MOSUNNY   65  42  44 N16       29.89F
FREMONT        FAIR      66  43  43 N9G16     29.94S
HOLLAND        SUNNY    N/A N/A N/A W9        29.96F
GRAND RAPIDS   PTSUNNY   65  41  41 N10       29.92F
IONIA          PTSUNNY   66  40  38 N8        29.90F
KALAMAZOO      PTSUNNY   62  43  49 N15G22    29.92S
LUDINGTON      SUNNY     55  41  59 NW10      29.99S
MARSHALL       PTSUNNY   66  42  41 NE8       29.89F
MOUNT PLEASANT SUNNY     67  42  40 N7        29.91S
MUSKEGON       MOSUNNY   61  41  47 NW14      29.95F
$$
MIZ016>042-052100-
NORTHERN LOWER MICHIGAN

CITY           SKY/WX    TMP DP  RH WIND       PRES   REMARKS
ALPENA         SUNNY     66  41  40 N9        29.92F
BEAVER ISLAND  SUNNY     56  38  49 W8        29.96F
BELLAIRE       SUNNY     58  40  52 NW5       29.97S
CADILLAC       MOSUNNY   61  42  49 N7        29.94R
CHARLEVOIX     SUNNY     51  40  66 W7        30.00F
FRANKFORT      SUNNY     54  41  61 N7        29.98S
GAYLORD        MOSUNNY   62  39  42 N6        29.93F
GRAYLING       MOSUNNY   63  42  45 N9        29.94S
HARBOR SPRINGS SUNNY     43  38  82 SW9       29.96S
HOUGHTON LAKE  PTSUNNY   63  42  46 CALM      29.93S
MANISTEE       SUNNY     52  39  62 NW13      29.99F
OSCODA         SUNNY     58  42  54 NE16      29.91F
PELLSTON       SUNNY     61  40  45 NW8       29.94F
ROGERS CITY    SUNNY     56  42  59 N9        29.95F
TRAVERSE CITY  MOSUNNY   54  42  64 NE8       29.96F
$$
MIZ007>008-015-052100-
EASTERN UPPER MICHIGAN

CITY           SKY/WX    TMP DP  RH WIND       PRES   REMARKS
KINROSS          N/A     54  39  58 N13       29.93F
MACKINAC ISLAN SUNNY     53  40  62 SW7       29.94F
NEWBERRY       SUNNY     62  37  39 W6        29.93F
S. S. MARIE    SUNNY     55  37  50 NW12      29.94F
MUNISING         N/A     44  37  76 N8        29.97F
$$
MIZ004>006-011>014-085-052100-
CENTRAL UPPER MICHIGAN

CITY           SKY/WX    TMP DP  RH WIND       PRES   REMARKS
MANISTIQUE     SUNNY     51  38  61 S7        29.96S
ESCANABA       SUNNY     55  36  47 S10       29.96S
MENOMINEE      SUNNY     61  39  44 NE9       29.97F
SAWYER-GWINN   SUNNY     63  34  34 S6        29.95F
$$
MIZ001>003-009>011-084-052100-
WESTERN UPPER MICHIGAN

CITY           SKY/WX    TMP DP  RH WIND       PRES   REMARKS
IRON MOUNTAIN  SUNNY     67  22  18 VRB5      29.92F
HOUGHTON       MOSUNNY   62  27  26 NW6       29.90F
COPPER HARBOR    N/A     54  36  50 E3        29.92F
IRONWOOD       SUNNY     70  37  30 W7        29.88F
$$

ABBREVIATIONS USED IN REMARKS
   TC - TEMPERATURE IN CELSIUS
  WCI - WIND CHILL INDEX
   HX - HEAT INDEX
  VSB - VISIBILITY





USA.gov is the U.S. government's official web portal to all federal, state and local government web resources and services.